星链-2417 (STARLINK-2417 )

导读 | 豆包AI

STARLINK-2417是美国SpaceX星链星座的成员卫星,于2021年4月7日发射入轨。星链项目旨在构建全球覆盖的低轨卫星互联网星座,为偏远、欠发达地区提供高速宽带服务。作为全球规模最大的卫星互联网星座,星链持续扩容,截至2026年已有超六千颗活跃卫星在轨,STARLINK-2417为星座全球网络覆盖提供支撑,推动卫星互联网落地应用。

基本信息
目录编号:
48096
目录名称:
STARLINK-2417
国际标识:
2021-027E
轨道中心:
EARTH
卫星名称:
星链-2417
卫星全名:
星链-2417 (STARLINK-2417 )
卫星状态:
在轨 (已飞行1849 天)
发射日期:
2021-04-07 UTC
国别 :
美国 (US)
星等 :
--
轨道信息
数据来源 国际轨道数据
星历时间: 2026-04-30T01:27:39+0800
19小时前
查看轨道信息
半长轴: 6848.871km
偏心率: 0.0001273
轨道倾角: 53.160°
近地点辐角 77.784°
升交点赤经 288.348°
平近点角 282.331°
近地点: 469.862km
远地点: 471.606km
周期: 94.013分钟
每日圈数: 15.317021
详细信息
固有亮度:
5
最大亮度:
2.5
卫星平台:
Starlink V1.0
覆盖范围:
全球
运营商:
太空探索技术公司
运营商所在国:
美国
制造商(研发单位):
太空探索技术公司
制造商所在国:
美国
使用方式:
暂无
卫星简介
星链(Starlink)计划是由太空探索技术公司(SpaceX)提出的一个巨型低轨卫星互联网星座项目,计划在2019年至2024年间在太空搭建由约1.2万颗卫星组成的“星链”网络,其中1584颗将部署在地球上空550千米处的近地轨道,并从2020年开始工作。该卫星仍在工作。
2D轨道图
3D轨道图
轨道高度分析图
轨道倾角分析图
轨道综合分析图
查看轨道综合分析图